2023/02/03 00:00:00,127.9,-0.2
2023/02/03 00:10:00,127.8,-0.1
2023/02/03 00:20:00,127.8, 0.0
2023/02/03 00:30:00,127.8,-0.2
2023/02/03 00:40:00,127.8,-0.1
2023/02/03 00:50:00,127.8,-0.2
2023/02/03 01:00:00,127.8,-0.3
2023/02/03 01:10:00,127.7,-0.2
2023/02/03 01:20:00,127.7,-0.3
2023/02/03 01:30:00,127.6,-0.2
2023/02/03 01:40:00,127.5,-0.3
2023/02/03 01:50:00,127.5,-0.3
2023/02/03 02:00:00,127.5,-0.3
2023/02/03 02:10:00,127.5,-0.3
2023/02/03 02:20:00,127.5,-0.3
2023/02/03 02:30:00,127.5,-0.5
2023/02/03 02:40:00,127.5,-0.4
2023/02/03 02:50:00,127.4,-0.4
2023/02/03 03:00:00,127.4,-0.5
2023/02/03 03:10:00,127.3,-0.4
2023/02/03 03:20:00,127.3,-0.2
2023/02/03 03:30:00,127.3,-0.2
2023/02/03 03:40:00,127.2, 0.0
2023/02/03 03:50:00,127.2,-0.2
2023/02/03 04:00:00,127.2, 0.0
2023/02/03 04:10:00,127.2,-0.5
2023/02/03 04:20:00,127.2,-1.1
2023/02/03 04:30:00,127.1,-1.7
2023/02/03 04:40:00,127.1,-1.9
2023/02/03 04:50:00,127.1,-1.7
2023/02/03 05:00:00,127.1,-1.2
2023/02/03 05:10:00,127.0,-1.1
2023/02/03 05:20:00,127.0,-0.7
2023/02/03 05:30:00,126.9,-0.9
2023/02/03 05:40:00,127.0,-1.2
2023/02/03 05:50:00,126.9,-1.1
2023/02/03 06:00:00,126.8,-0.7
2023/02/03 06:10:00,126.8,-0.4
2023/02/03 06:20:00,126.8,-0.5
2023/02/03 06:30:00,126.7,-0.4
2023/02/03 06:40:00,126.7,-0.4
2023/02/03 06:50:00,126.6,-0.3
2023/02/03 07:00:00,126.6,-0.3
2023/02/03 07:10:00,126.6,-0.6
2023/02/03 07:20:00,126.5,-0.4
2023/02/03 07:30:00,126.4,-0.5
2023/02/03 07:40:00,126.4,-0.3
2023/02/03 07:50:00,126.3,-0.2
2023/02/03 08:00:00,126.3,-0.2
2023/02/03 08:10:00,126.2, 0.6
2023/02/03 08:20:00,126.1, 1.2
2023/02/03 08:30:00,126.1, 0.9
2023/02/03 08:40:00,126.0, 1.7
2023/02/03 08:50:00,125.9, 2.6
2023/02/03 09:00:00,125.8, 3.3
2023/02/03 09:10:00,125.8, 4.3
2023/02/03 09:20:00,125.7, 5.5
2023/02/03 09:30:00,125.7, 4.2
2023/02/03 09:40:00,125.5, 3.9
2023/02/03 09:50:00,125.5, 4.3
2023/02/03 10:00:00,125.4, 4.4
2023/02/03 10:10:00,125.4, 4.1
2023/02/03 10:20:00,125.3, 4.6
2023/02/03 10:30:00,125.3, 6.0
2023/02/03 10:40:00,125.2, 6.3
2023/02/03 10:50:00,124.9, 5.8
2023/02/03 11:00:00,124.6, 6.2
2023/02/03 11:10:00,124.4, 5.2
2023/02/03 11:20:00,124.4, 5.3
2023/02/03 11:30:00,124.1, 6.7
2023/02/03 11:40:00,123.9, 8.4
2023/02/03 11:50:00,123.7, 6.6
2023/02/03 12:00:00,123.6, 6.7
2023/02/03 12:10:00,123.6, 6.5
2023/02/03 12:20:00,123.5, 6.7
2023/02/03 12:30:00,123.4, 6.8
2023/02/03 12:40:00,123.3, 7.4
2023/02/03 12:50:00,123.2, 7.7
2023/02/03 13:00:00,123.1, 7.8
2023/02/03 13:10:00,123.2, 8.6
2023/02/03 13:20:00,122.9, 7.7
2023/02/03 13:30:00,122.8, 7.5
2023/02/03 13:40:00,122.9, 7.5
2023/02/03 13:50:00,123.0, 7.0
2023/02/03 14:00:00,122.9, 6.3
2023/02/03 14:10:00,122.8, 5.2
2023/02/03 14:20:00,123.0, 4.3
2023/02/03 14:30:00,122.9, 4.5
2023/02/03 14:40:00,122.9, 3.8
2023/02/03 14:50:00,122.7, 3.8
2023/02/03 15:00:00,122.6, 5.0
2023/02/03 15:10:00,122.4, 5.6
2023/02/03 15:20:00,122.4, 5.0
2023/02/03 15:30:00,122.3, 4.7
2023/02/03 15:40:00,122.2, 4.5
2023/02/03 15:50:00,122.2, 4.3
2023/02/03 16:00:00,122.3, 4.0
2023/02/03 16:10:00,122.3, 3.4
2023/02/03 16:20:00,122.3, 3.0
2023/02/03 16:30:00,122.2, 2.7
2023/02/03 16:40:00,122.2, 2.4
2023/02/03 16:50:00,122.1, 2.5
2023/02/03 17:00:00,122.1, 2.5
2023/02/03 17:10:00,122.0, 1.5
2023/02/03 17:20:00,122.0, 2.0
2023/02/03 17:30:00,121.9, 1.5
2023/02/03 17:40:00,121.8, 1.4
2023/02/03 17:50:00,121.8, 1.4
2023/02/03 18:00:00,121.8, 1.0
2023/02/03 18:10:00,121.7, 1.3
2023/02/03 18:20:00,121.7, 0.8
2023/02/03 18:30:00,121.6, 0.5
2023/02/03 18:40:00,121.6, 0.3
2023/02/03 18:50:00,121.5, 0.2
2023/02/03 19:00:00,121.5,-0.1
2023/02/03 19:10:00,121.4,-0.2
2023/02/03 19:20:00,121.5,-0.3
2023/02/03 19:30:00,121.4,-0.5
2023/02/03 19:40:00,121.3,-0.4
2023/02/03 19:50:00,121.3,-0.3
2023/02/03 20:00:00,121.3,-0.7
2023/02/03 20:10:00,121.3,-0.8
2023/02/03 20:20:00,121.2,-1.1
2023/02/03 20:30:00,121.2,-1.0
2023/02/03 20:40:00,121.1,-0.4
2023/02/03 20:50:00,121.1,-0.3
2023/02/03 21:00:00,121.0,-0.2
2023/02/03 21:10:00,121.0,-0.3
2023/02/03 21:20:00,120.9,-0.4
2023/02/03 21:30:00,120.9,-0.4
2023/02/03 21:40:00,120.9,-1.1
2023/02/03 21:50:00,120.8,-0.9
2023/02/03 22:00:00,120.8,-1.3
2023/02/03 22:10:00,120.9,-1.6
2023/02/03 22:20:00,120.9,-1.6
2023/02/03 22:30:00,120.9,-1.6
2023/02/03 22:40:00,120.9,-1.3
2023/02/03 22:50:00,121.1,-1.6
2023/02/03 23:00:00,121.1,-1.6
2023/02/03 23:10:00,121.3,-1.7
2023/02/03 23:20:00,121.2,-1.6
2023/02/03 23:30:00,121.1,-1.8
2023/02/03 23:40:00,121.0,-1.6
2023/02/03 23:50:00,120.9,-1.4
